Greenville, ME

8:50 PM EST on January 18, 2018 (GMT -0500)
Greenville

Weather History for KGNR - June, 2013

Change the Weather History Date:

Sunday, June 30, 2013

  Actual Average (KMLT) Record (KMLT)
Temperature  
Mean Temperature 68 °F -  
Max Temperature 79 °F 76 °F 95 °F (1931)
Min Temperature 62 °F 54 °F 41 °F (1936)
Cooling Degree Days 4    
Growing Degree Days 18 (Base 50)    
Moisture  
Dew Point 61 °F    
Average Humidity 80    
Maximum Humidity 100    
Minimum Humidity 57    
Precipitation  
Precipitation 0.00 in - - ()
Sea Level Pressure  
Sea Level Pressure 29.81 in    
Wind  
Wind Speed 2 mph (NW)    
Max Wind Speed 7 mph    
Max Gust Speed -    
Averages and records for this station are not official NWS values.
T = Trace of Precipitation, MM = Missing Value Source: NWS Daily Summary

Daily Weather History Graph

Daily Weather History Graph

Search for Another Location

Airport or City:

Trip Planner

Search our weather history database for the weather conditions in past years. The results will help you decide how hot, cold, wet, or windy it might be!

Date:

Astronomy

Jun. 30, 2013 Rise Set
Actual Time 4:53 AM EDT 8:30 PM EDT
Civil Twilight 4:15 AM EDT 9:08 PM EDT
Nautical Twilight 3:25 AM EDT 9:58 PM EDT
Astronomical Twilight 2:17 AM EDT 11:05 PM EDT
Moon 12:05 AM EDT (6/30) 1:28 PM EDT (6/30)
Length of Visible Light 16h 52m
Length of Day
15h 37m
Last Quarter, 45% of the Moon is Illuminated
Jun 30
Last Quarter
Jul 8
New
Jul 15
First Quarter
Jul 22
Full
Jul 29
Last Quarter

Hourly Weather History & Observations

Time (EDT) Temp. Dew Point Humidity Pressure Visibility Wind Dir Wind Speed Gust Speed Precip Events Conditions
12:56 AM 62.1 °F 62.1 °F 100% 29.68 in - Calm Calm - N/A   Unknown
1:56 AM 63.0 °F 62.1 °F 97% 29.69 in - Calm Calm - N/A   Unknown
2:56 AM 62.1 °F 62.1 °F 100% 29.69 in - South 3.5 mph - N/A   Unknown
3:56 AM 62.1 °F 62.1 °F 100% 29.70 in - Calm Calm - N/A   Unknown
4:56 AM 62.1 °F 62.1 °F 100% 29.72 in - Calm Calm - N/A   Unknown
5:56 AM 62.1 °F 62.1 °F 100% 29.74 in - Calm Calm - N/A   Unknown
6:56 AM 63.0 °F 62.1 °F 97% 29.75 in - Calm Calm - N/A   Unknown
7:56 AM 66.0 °F 63.0 °F 90% 29.77 in - Calm Calm - N/A   Unknown
8:56 AM 68.0 °F 63.0 °F 84% 29.80 in - Calm Calm - N/A   Unknown
9:56 AM 72.0 °F 61.0 °F 68% 29.80 in - Variable 3.5 mph - N/A   Unknown
10:56 AM 73.0 °F 59.0 °F 61% 29.81 in - Variable 4.6 mph - N/A   Unknown
11:56 AM 75.0 °F 60.1 °F 60% 29.81 in - Variable 3.5 mph - N/A   Unknown
12:56 PM 73.9 °F 60.1 °F 62% 29.82 in - NW 5.8 mph - N/A   Unknown
1:56 PM 75.9 °F 60.1 °F 58% 29.82 in - Variable 4.6 mph - N/A   Unknown
2:56 PM 75.0 °F 59.0 °F 57% 29.83 in - Calm Calm - N/A   Unknown
3:56 PM 75.9 °F 61.0 °F 60% 29.83 in - NNW 5.8 mph - N/A   Unknown
4:56 PM 75.9 °F 60.1 °F 58% 29.84 in - NW 6.9 mph - N/A   Unknown
5:56 PM 73.0 °F 60.1 °F 64% 29.86 in - NW 5.8 mph - N/A   Unknown
6:56 PM 73.0 °F 61.0 °F 66% 29.88 in - NNW 5.8 mph - N/A   Unknown
7:56 PM 71.1 °F 60.1 °F 68% 29.89 in - Calm Calm - N/A   Unknown
8:56 PM 66.9 °F 63.0 °F 87% 29.90 in - Calm Calm - N/A   Unknown
9:56 PM 64.9 °F 63.0 °F 93% 29.93 in - Calm Calm - N/A   Unknown
10:56 PM 64.9 °F 63.0 °F 93% 29.93 in - Calm Calm - N/A   Unknown
11:56 PM 64.9 °F 62.1 °F 90% 29.93 in - Calm Calm - N/A   Unknown